Location: Newark
(41.6500°N, 71.4833°W)
Time: 21:06:56
(UTC+00:00)

Transit 2A Rocket - Pass Details

Date: 30 January 2020
Orbit: 591 x 912 km, 66.7° (Epoch: 23 February)

Event Time Altitude Azimuth Distance (km) Brightness Sun altitude
Rises 08:57:27 0° 217° (SW) 2,834 - -34.3°
Reaches altitude 10° 08:59:43 10° 221° (SW) 1,922 - -33.8°
Maximum altitude 09:03:57 61° 302° (WNW) 674 - -33.1°
Exits shadow 09:08:14 10° 24° (NNE) 1,942 7.4 -32.3°
Drops below altitude 10° 09:08:15 10° 24° (NNE) 1,951 7.4 -32.3°
Sets 09:10:34 0° 28° (NNE) 2,882 8.4 -31.8°
